Theta_e
297 296 295 296 296 296 296 295 293 288 293 293 293 296 296 296 299 299 299 304 309 310 311 311 311 312 312 313 313 313 313 314 314 315 316 316 317 317
298 297 296 296 296 295 295 295 294 294 291 293 294 294 296 299 300 301 299 306 307 309 309 310 310 311 311 311 312 311 311 312 313 314 315 315 315 315
297 297 297 297 296 295 295 295 294 293 292 296 296 296 295 295 297 296 298 297 298 306 308 309 309 309 310 310 312 311 310 311 311 312 313 313 315 315
298 297 297 299 296 295 294 294 293 294 293 293 295 295 294 296 295 294 298 299 297 303 307 308 309 310 310 310 311 311 311 310 310 311 311 312 312 313
297 296 297 296 295 294 294 294 294 296 293 292 294 294 294 293 294 294 294 295 297 303 305 306 307 308 309 309 310 310 309 309 308 309 309 310 311 312
297 297 297 296 295 295 295 294 295 293 293 291 292 293 293 293 291 291 291 292 293 299 302 304 306 307 307 308 309 309 308 308 308 307 307 307 308 309
297 297 297 299 305 305 302 298 296 294 293 292 292 291 291 290 291 291 289 292 291 293 293 295 295 295 296 302 303 305 305 305 306 306 306 306 306 307
297 297 297 301 301 306 308 309 306 297 295 292 292 291 291 290 290 290 289 291 292 298 294 297 298 297 296 298 302 304 304 305 305 306 305 306 306 306
297 296 297 299 300 298 302 305 303 305 303 296 292 291 291 292 295 288 291 293 295 297 297 294 296 296 297 298 302 303 304 304 304 304 304 304 305 305
296 296 295 296 297 301 298 296 295 295 297 298 294 294 295 298 298 297 296 293 291 293 294 288 290 291 294 296 301 302 302 303 303 303 302 302 303 304
296 297 296 296 303 306 297 295 294 294 300 303 304 302 300 300 298 290 286 283 283 281 286 288 287 289 290 293 296 299 300 301 301 302 301 302 303 304
295 295 301 300 305 305 297 294 292 292 292 292 290 291 292 291 294 288 286 282 280 279 286 286 285 286 286 289 291 294 296 298 300 299 300 301 302 300
294 294 295 301 302 302 301 293 293 294 291 288 286 285 286 286 286 286 286 284 282 281 287 289 288 287 288 289 292 292 293 294 294 295 297 298 301 299
294 295 294 299 300 300 299 301 299 292 287 285 283 282 282 282 284 284 285 286 286 286 288 287 287 287 288 288 288 291 292 293 293 292 293 296 298 299
295 296 298 298 298 296 298 296 292 286 284 283 282 282 282 283 283 284 285 285 285 286 289 290 289 289 289 288 288 289 290 291 292 291 291 292 293 294
298 293 294 295 296 292 290 288 286 285 284 282 282 281 282 282 282 283 282 283 282 283 286 288 289 287 286 289 289 289 291 288 291 291 291 291 292 292
291 289 287 287 286 285 285 284 284 283 283 282 282 281 282 282 282 283 282 282 282 282 283 287 285 287 287 288 287 289 289 290 291 290 289 288 289 290
289 286 285 285 284 284 283 283 283 285 282 282 282 281 282 282 282 282 282 284 282 283 281 283 283 283 284 286 291 289 289 289 290 290 288 287 287 288
287 285 284 284 285 284 283 283 282 283 282 282 282 282 282 282 283 282 283 282 281 281 281 283 282 281 279 278 284 292 288 289 289 288 289 286 286 285
286 285 284 284 284 284 283 283 283 282 282 282 282 282 282 282 283 283 282 281 282 283 282 282 282 282 280 280 281 284 290 289 288 287 286 287 288 290
285 284 284 284 284 283 283 283 283 282 282 282 281 281 283 284 284 283 283 284 284 282 280 281 282 288 285 285 282 284 287 291 291 289 287 285 284 285
287 286 285 285 284 283 283 283 283 282 282 281 281 281 284 284 284 283 283 282 283 282 282 282 282 283 283 282 280 281 285 289 291 291 292 290 285 282
287 286 285 284 284 284 283 283 282 282 282 282 282 282 284 284 284 284 283 283 283 282 282 281 282 282 282 282 282 281 282 285 287 286 287 292 292 291
Wind_Speed
6 6 5 4 5 6 5 4 5 4 7 3 4 3 5 4 8 7 7 14 18 17 17 18 18 18 19 20 20 19 19 21 22 23 24 24 25 25
4 6 5 4 5 4 5 4 4 5 6 4 5 5 5 8 9 8 7 16 18 19 18 16 17 18 19 19 19 19 20 20 21 23 24 25 25 24
4 6 6 5 4 4 4 4 5 5 8 7 3 3 5 6 7 6 7 7 8 17 18 17 16 16 16 18 18 20 21 21 22 24 24 25 25 26
6 5 6 3 5 4 4 6 5 6 5 11 5 3 5 5 6 6 7 6 5 13 18 17 16 16 16 16 16 18 18 19 20 21 25 27 27 25
6 5 6 4 5 3 4 4 4 4 4 5 7 3 4 2 4 4 4 6 4 13 15 15 15 15 15 15 15 15 16 18 20 21 22 25 27 27
5 5 5 5 6 5 4 5 4 3 4 4 4 5 4 3 2 3 5 2 5 5 10 12 14 15 16 19 18 17 17 19 21 23 21 22 23 24
5 4 4 6 10 8 3 4 4 3 3 3 3 3 3 3 4 2 3 5 4 4 3 4 3 4 6 13 15 17 18 20 20 20 21 21 22 21
5 4 4 6 6 8 9 10 6 3 3 2 3 3 5 3 3 3 3 3 5 2 2 5 3 5 5 7 16 20 21 21 21 21 23 22 22 21
5 4 4 3 5 4 7 7 5 6 4 3 4 4 4 3 3 2 3 4 5 5 4 10 2 7 7 8 20 21 22 22 20 20 22 22 21 21
5 4 3 4 5 4 3 4 4 4 5 4 4 5 5 5 3 4 6 6 5 4 3 9 3 7 5 7 19 23 22 21 18 17 20 22 21 18
4 4 3 4 5 4 2 5 6 5 6 9 8 9 11 11 9 4 4 4 6 4 3 2 3 10 6 9 11 18 13 15 15 17 19 21 19 16
4 3 3 3 6 6 3 4 5 5 3 4 5 6 7 7 11 3 3 3 3 4 3 7 4 5 6 4 3 5 4 14 15 16 16 17 15 2
4 3 2 4 5 9 9 3 5 2 2 3 3 4 4 5 5 4 4 2 2 4 7 6 7 9 7 9 3 3 5 7 5 7 12 14 12 4
4 3 2 4 8 8 6 5 4 5 3 3 2 2 3 4 4 5 5 5 4 8 7 4 5 9 9 9 7 4 5 5 4 5 4 7 8 3
4 4 3 5 6 2 2 4 5 2 1 1 2 2 3 4 5 5 5 5 6 7 6 4 5 8 9 9 8 6 9 3 2 4 3 3 2 2
6 3 3 4 3 1 2 3 1 2 2 1 3 3 3 4 3 3 3 4 4 4 7 6 5 7 9 9 8 9 7 4 2 2 2 2 2 2
6 2 1 1 1 1 2 1 1 0 1 1 2 3 3 3 3 4 2 4 7 8 8 7 6 7 9 12 9 7 6 6 5 4 1 2 2 2
3 3 2 4 4 3 3 2 2 5 2 2 3 3 3 4 4 3 3 5 5 7 5 5 8 9 7 7 9 7 6 5 4 3 2 2 1 3
3 3 3 3 4 4 3 4 3 3 2 3 3 3 4 4 6 5 7 7 6 6 6 7 8 7 8 9 9 7 7 7 6 5 3 3 2 0
3 4 5 5 4 4 4 4 3 3 3 3 3 3 4 3 3 6 7 7 6 6 7 6 5 6 6 8 10 12 12 7 6 7 2 1 2 4
4 4 4 4 4 4 4 4 4 4 4 3 3 4 4 6 4 6 7 13 13 6 8 7 6 16 6 8 6 7 7 8 9 7 2 2 2 2
4 5 5 4 4 4 4 4 4 4 3 4 4 4 5 5 5 5 7 7 7 6 8 8 7 6 6 6 8 11 7 6 6 10 12 8 3 3
5 5 4 4 4 4 4 4 4 4 4 5 4 4 4 5 5 6 7 7 7 7 7 8 8 6 7 7 11 8 11 10 4 6 5 11 11 4
Wind_Direction
225 224 213 220 205 213 210 187 186 295 295 273 271 282 285 278 265 267 268 278 291 295 295 292 292 289 283 280 274 276 284 281 278 275 275 277 280 278
223 232 234 224 222 211 208 204 197 225 266 206 250 260 274 287 289 289 282 289 293 295 294 292 293 292 288 286 281 275 278 281 281 284 282 276 271 268
236 233 251 236 237 224 208 206 208 198 250 282 262 271 268 266 281 281 277 282 282 293 299 300 298 291 287 284 279 276 275 276 280 281 282 283 280 270
249 237 256 243 252 233 217 227 219 206 221 275 285 272 252 266 259 280 287 286 280 290 295 297 295 288 282 281 278 273 273 278 281 283 286 283 278 275
245 243 262 261 273 239 233 247 240 244 217 236 274 262 276 283 291 285 275 284 280 288 297 300 294 294 294 293 286 281 277 274 276 281 283 285 281 280
240 238 251 247 254 264 238 246 260 258 247 245 268 274 251 284 262 268 306 271 302 305 294 293 299 305 312 304 291 285 281 280 280 281 279 282 281 281
240 243 248 252 262 265 247 262 240 241 260 278 276 274 271 311 281 297 284 297 276 252 282 291 285 289 285 294 289 283 283 282 285 283 282 277 277 277
245 256 261 282 291 299 300 294 270 238 271 246 273 270 274 252 268 273 268 298 311 248 261 288 282 287 279 276 278 288 289 283 284 282 283 282 280 273
221 240 281 284 319 301 302 316 326 331 332 228 251 265 277 263 284 272 260 264 282 298 300 305 249 283 280 282 286 291 289 287 287 287 289 285 280 271
225 224 219 285 284 283 325 329 325 319 299 296 247 267 253 285 283 305 324 316 300 299 320 289 297 295 302 287 287 288 293 295 291 291 294 291 282 270
228 219 210 244 252 325 332 314 311 297 319 332 334 353 5 5 14 12 348 345 314 262 277 284 334 304 287 287 281 296 301 299 291 298 298 293 283 274
223 224 245 219 264 310 309 272 280 281 319 351 357 356 7 350 357 20 317 321 301 336 295 336 311 331 303 250 286 298 304 297 302 304 305 306 302 224
201 201 221 273 303 298 291 244 242 208 18 42 4 350 352 340 333 334 314 267 270 235 287 326 324 314 291 297 293 288 287 284 292 296 305 312 288 184
192 195 210 283 290 294 293 256 110 89 57 19 6 343 327 313 302 306 299 299 270 274 291 274 294 303 302 305 298 284 278 265 265 276 298 307 320 336
165 179 204 276 288 251 167 99 65 64 71 13 329 279 258 274 289 301 298 286 283 280 276 249 285 311 306 303 302 301 310 269 241 266 281 280 290 311
162 154 209 263 207 182 63 46 138 168 155 207 250 266 288 314 303 299 292 304 297 301 313 303 309 321 308 300 297 298 298 285 236 255 264 255 252 258
137 117 184 227 262 256 234 237 273 183 263 253 259 297 294 287 292 307 296 314 331 326 327 313 310 326 307 295 294 292 303 302 274 265 238 266 247 249
119 169 196 209 218 220 223 238 233 244 235 251 273 276 285 290 287 290 289 287 310 309 303 311 329 333 320 313 277 286 298 305 317 257 205 249 259 250
159 191 208 211 227 227 226 214 220 229 233 256 252 266 273 285 310 321 318 313 316 311 308 325 329 326 321 320 301 310 321 309 306 301 240 207 231 259
168 187 209 213 213 218 224 213 224 248 259 263 281 281 274 270 287 323 320 307 298 312 318 310 312 312 299 307 303 298 275 285 298 302 266 215 236 238
191 210 215 216 220 216 222 222 208 222 236 242 250 265 265 293 273 303 301 312 312 312 306 303 284 296 304 293 283 298 308 275 269 288 249 201 193 187
194 208 216 214 219 212 218 210 213 226 245 242 248 252 280 294 279 288 302 301 293 291 295 297 298 293 289 291 296 298 299 304 274 278 279 193 177 216
201 201 207 214 208 211 216 213 207 219 222 232 243 254 263 279 278 291 286 286 291 288 294 298 305 295 277 282 294 296 298 299 298 309 308 231 211 222